Home   Weather   Gröbming   Past weeks

Flag for Austria Past Weather in Gröbming, Styria, Austria — Yesterday and Last 2 Weeks

Now
20 °F

Cold.


Feels Like: 20 °F
Forecast: 23 / 42 °F
Wind: 1 mph from Northeast

Location: Aigen Im Ennstal

Current Time: Dec 10, 2016 at 7:49:23 am

Latest Report: Dec 10, 2016 at 6:00 am


Visibility: N/A

Pressure: 30.58 "Hg (27.71 "Hg at 769m altitude)

Humidity: 83%

Dew Point: 16 °F

Location of GröbmingLocation

Past Weather in Gröbming — Graph

°F

Gröbming Temperature Yesterday

Maximum temperature yesterday: 39 °F (at 2:00 pm)
Minimum temperature yesterday: 19 °F (at 9:00 am)
Average temperature yesterday: 28 °F

High & Low Weather Summary for the Past Weeks

 TemperatureHumidityPressure
High49 °F (Nov 26, 2:00 pm)98% (Nov 25, 7:00 am)30.81 "Hg (Nov 25, 7:00 am)
Low15 °F (Nov 30, 7:00 am)28% (Dec 1, 9:00 pm)29.94 "Hg (Nov 27, 2:00 pm)
Average32 °F75%30.39 "Hg
* Reported Nov 25 6:00 am — Dec 10 6:00 am, Gröbming, Weather by CustomWeather, © 2016

Note: Actual official high and low records may vary slightly from our data, if they occured in-between our weather recording intervals... More about our weather records

Advertising

Gröbming Weather History for the Previous 24 Hours

Scroll right to see more
 ConditionsComfort  
Time TempWeatherWind HumidityBarometerVisibility
6:00 am
Sat, Dec 10
20 °FCold.1 mph83%30.58 "HgN/A
5:00 am23 °FCold.No wind82%30.56 "HgN/A
4:00 am24 °FPassing clouds.1 mph82%30.56 "Hg12 mi
3:00 am22 °FCold.No wind80%30.59 "HgN/A
2:00 am28 °FChilly.1 mph72%30.57 "HgN/A
1:00 am25 °FPassing clouds.1 mph79%30.59 "Hg12 mi
12:00 am24 °FCold.No wind82%30.61 "HgN/A
11:00 pm
Fri, Dec 9
26 °FChilly.1 mph80%30.62 "HgN/A
10:00 pm27 °FPassing clouds.N/A74%30.60 "Hg12 mi
9:00 pm28 °FChilly.1 mph74%30.61 "HgN/A
8:00 pm28 °FChilly.1 mph75%30.60 "HgN/A
7:00 pm31 °FPassing clouds.N/A71%30.56 "Hg12 mi
6:00 pm31 °FChilly.2 mph67%30.55 "HgN/A
5:00 pm39 °FChilly.1 mph48%30.50 "HgN/A
4:00 pm36 °FPassing clouds.N/A60%30.52 "Hg31 mi
3:00 pm38 °FChilly.1 mph58%30.50 "HgN/A
2:00 pm39 °FChilly.2 mph56%30.50 "HgN/A
1:00 pm38 °FPartly sunny.N/A59%30.52 "Hg31 mi
12:00 pm34 °FChilly.1 mph68%30.56 "HgN/A
11:00 am28 °FChilly.1 mph76%30.61 "HgN/A
10:00 am22 °FPassing clouds.2 mph85%30.64 "Hg31 mi
9:00 am19 °FCold.No wind87%30.66 "HgN/A
8:00 am20 °FCold.No wind85%30.66 "HgN/A
7:00 am23 °FClear.2 mph84%30.63 "Hg25 mi
Weather by CustomWeather, © 2016

See weather overviewHow to use our weather pages